Wind_Speed
9 8 8 8 8 8 7 6 6 4 3 3 3 2 2 2 2 1 1 2 2 2 2 2 4 5 5 5 5 6 6 6 6 7 7 7 6 6 5 5 5 5 4
8 8 7 8 8 8 7 7 6 5 4 3 3 3 2 1 2 1 1 0 1 2 2 3 4 5 5 6 6 6 7 6 7 7 7 6 5 5 5 4 5 5 5
7 7 7 7 7 7 8 7 7 7 6 5 4 3 2 1 1 1 0 0 2 2 2 3 3 4 5 6 6 7 7 7 8 7 7 6 6 5 5 5 5 4 5
7 7 7 7 7 7 7 7 7 6 6 5 4 3 2 3 2 1 1 1 2 2 2 3 3 4 5 6 6 7 7 7 8 8 7 7 7 6 6 5 6 6 5
8 7 7 7 7 7 7 7 6 6 5 5 4 3 3 3 2 1 1 1 1 2 2 2 2 4 5 6 7 7 7 7 8 8 8 7 7 7 6 6 6 7 6
7 7 7 7 7 7 7 6 6 6 6 5 5 4 3 3 2 1 1 1 0 1 2 2 3 4 5 6 6 7 7 7 8 9 9 8 8 7 7 7 7 7 7
7 7 7 7 7 7 7 6 6 6 6 6 6 5 4 3 2 2 1 1 1 2 2 2 3 4 5 6 7 7 8 8 8 9 10 9 9 8 8 8 8 8 8
7 7 7 7 7 7 6 6 6 6 6 6 6 6 4 4 3 2 1 1 2 2 3 3 4 4 5 6 7 8 9 10 10 9 9 9 9 9 9 9 8 8 8
7 7 7 8 7 7 7 6 6 6 6 6 6 6 5 4 4 3 2 2 2 3 3 4 4 5 5 6 7 7 9 10 10 9 9 9 9 9 10 10 9 8 8
7 7 7 7 7 7 6 6 7 7 6 5 6 6 5 5 4 4 3 3 3 3 4 4 5 6 6 6 7 7 8 9 10 10 9 9 9 9 10 10 10 9 9
7 7 7 6 7 6 6 6 7 7 6 6 6 6 5 5 5 5 4 4 4 4 4 4 5 6 6 7 7 7 8 10 11 10 10 9 10 9 9 10 10 10 10
7 7 7 6 6 6 6 6 7 7 6 6 6 6 5 6 6 5 5 4 4 4 4 4 5 6 6 7 8 8 9 9 9 10 9 9 10 10 9 10 10 10 10
7 7 7 7 7 7 6 6 6 6 7 7 6 6 6 6 6 5 5 4 4 4 5 5 6 6 7 7 7 7 8 8 9 9 9 9 10 10 10 10 10 10 10
6 7 7 7 7 7 7 7 6 6 7 6 6 6 6 6 5 5 5 5 4 5 5 5 6 7 7 7 7 8 8 8 9 9 9 10 10 10 10 10 10 10 10
6 7 7 7 7 7 6 6 6 6 6 6 6 6 6 6 6 5 5 5 5 4 5 4 4 4 5 7 7 8 8 8 9 9 9 10 10 10 11 11 10 10 10
6 6 6 6 6 6 6 6 6 6 7 7 7 7 6 6 6 6 5 5 5 5 5 5 3 2 4 6 7 8 8 8 9 9 10 10 11 11 11 11 11 11 11
6 6 6 6 6 7 7 7 7 6 7 7 7 7 6 6 5 6 5 5 6 6 5 4 3 2 4 6 7 8 9 9 10 11 11 11 12 12 12 12 12 12 12
7 7 6 6 7 7 7 8 7 6 6 6 6 7 6 6 6 6 6 6 6 7 6 4 4 4 4 6 7 9 10 11 11 12 12 12 12 12 12 12 12 12 13
9 7 7 7 7 7 8 8 7 7 7 6 7 7 6 6 7 7 6 6 7 7 6 6 5 5 6 6 7 8 9 10 11 12 12 13 13 13 13 13 13 12 13
10 8 7 7 8 8 8 8 7 8 7 7 7 7 6 6 7 7 7 7 7 8 7 7 7 6 7 6 7 8 9 9 10 11 11 12 13 13 13 13 13 13 13
11 10 9 8 8 8 8 8 8 9 8 7 7 6 6 6 7 7 8 8 8 8 8 7 7 7 7 7 7 8 8 9 10 10 11 11 12 12 12 13 14 14 14
11 11 10 9 9 9 9 8 8 8 7 7 6 6 6 7 7 7 8 9 9 9 8 7 7 7 7 8 8 9 9 10 10 11 11 11 12 12 12 13 13 14 14
11 11 11 10 10 10 10 9 8 8 7 7 7 7 7 7 7 8 8 9 10 9 9 8 8 8 8 8 8 9 9 10 11 11 11 11 11 12 12 13 13 14 14
12 11 11 10 11 11 11 10 9 8 8 8 8 8 8 8 8 9 9 10 10 9 9 9 9 9 9 9 10 10 10 11 11 12 12 12 12 12 13 13 14 15 16
13 12 11 11 10 11 11 10 9 9 9 8 8 9 8 8 9 9 10 10 11 10 10 10 10 10 10 10 10 11 11 12 12 12 12 13 13 13 14 14 15 15 15
13 12 11 11 11 11 10 9 9 9 9 8 8 9 9 9 10 10 10 11 11 11 11 11 11 11 11 11 11 12 12 12 13 13 13 13 13 13 14 14 15 15 14
Wind_Direction
39 37 36 36 36 34 32 35 40 38 46 61 79 88 96 81 70 77 93 95 101 127 130 139 156 163 164 166 172 179 172 172 176 179 176 179 186 187 187 196 196 194 198
36 33 33 36 37 35 35 32 25 24 31 44 64 69 75 88 73 65 69 94 140 126 119 138 169 172 171 174 179 184 185 188 188 184 184 186 192 196 196 204 207 202 209
36 32 32 31 32 32 30 30 28 33 40 46 52 55 55 36 37 57 114 217 178 153 139 141 155 166 170 176 182 190 196 197 195 198 197 198 204 207 205 206 210 209 210
33 30 29 28 28 29 28 27 27 33 38 38 40 52 43 29 24 39 81 143 180 174 160 163 169 175 179 185 189 194 199 207 204 206 202 205 208 211 213 211 211 213 209
32 31 32 29 26 22 21 23 24 27 30 29 27 31 29 26 24 34 23 16 172 181 176 183 195 199 195 195 195 199 205 212 213 211 212 212 211 210 216 216 219 216 218
31 30 33 30 24 14 12 17 22 25 23 23 21 16 19 20 14 1 351 330 254 203 200 212 214 218 211 207 210 211 212 214 216 216 214 217 216 214 216 218 218 219 222
25 26 29 27 22 17 13 13 17 22 25 25 22 12 12 6 356 341 316 279 261 251 236 232 220 227 224 220 221 223 222 219 219 221 219 217 214 211 211 216 222 224 227
25 22 20 18 17 14 15 16 19 19 20 23 22 18 13 358 349 338 334 299 282 267 248 245 238 233 233 230 230 230 232 226 221 223 226 223 217 215 215 219 221 226 226
22 17 16 13 13 12 15 18 21 20 16 18 17 18 17 9 3 349 332 312 295 280 266 260 252 252 246 242 239 237 232 223 217 218 223 226 225 226 225 227 227 228 227
13 9 11 11 10 8 10 11 13 15 13 9 11 14 14 10 2 353 338 325 305 283 272 265 258 255 255 246 243 239 225 216 213 214 221 227 226 228 230 236 235 235 236
8 5 5 4 5 4 2 3 5 8 8 6 6 7 8 5 357 349 341 331 316 299 283 270 260 253 254 246 240 237 226 216 215 216 220 226 232 234 237 239 240 240 242
360 0 0 359 0 0 0 0 2 7 7 6 3 1 2 357 350 345 338 334 320 303 286 269 260 258 255 246 239 235 226 218 218 218 223 227 233 235 239 241 242 242 244
352 353 354 358 355 356 357 358 2 5 7 6 4 1 359 358 357 352 345 337 321 304 293 277 266 261 254 244 235 228 225 221 222 224 224 229 235 240 241 243 248 246 246
341 347 348 353 351 353 353 354 355 356 1 4 4 359 355 357 355 354 354 345 326 313 306 295 278 266 254 241 230 227 226 224 225 230 232 234 239 242 242 245 248 249 251
329 334 340 344 347 347 349 351 349 348 351 354 355 353 348 347 346 349 350 349 344 329 318 314 294 270 246 231 223 226 226 228 230 234 237 240 242 244 244 245 249 254 255
319 325 330 334 339 341 344 343 342 343 346 350 353 352 347 344 346 346 350 351 349 339 327 319 309 274 232 229 230 232 234 237 240 240 239 241 244 247 246 247 249 254 256
308 316 323 326 331 332 330 331 331 333 339 344 347 350 348 345 344 341 340 343 346 340 330 313 298 268 237 235 237 238 242 245 247 248 245 244 246 249 248 250 252 254 256
294 304 309 314 320 324 322 325 326 326 331 334 337 340 343 342 337 337 335 338 341 339 330 315 290 273 261 252 246 247 248 248 250 252 248 247 248 249 249 250 253 256 255
286 293 297 304 310 316 318 320 320 320 322 326 330 334 337 337 336 333 333 334 335 335 329 322 301 278 268 263 254 248 250 253 253 253 250 251 251 252 254 256 257 256 257
279 282 288 296 302 308 312 316 316 320 319 318 320 323 328 330 330 329 333 332 331 327 324 321 315 299 282 275 266 258 254 254 255 255 255 255 253 254 256 257 257 257 259
274 276 281 287 295 300 304 308 309 311 315 313 316 314 319 321 323 327 330 330 328 328 326 325 320 313 298 289 282 271 262 258 260 260 261 260 256 255 255 253 256 259 259
269 271 278 282 287 293 298 304 305 306 309 308 305 305 311 315 318 323 326 327 325 324 325 326 323 315 306 298 291 284 271 265 265 265 265 262 258 257 258 259 260 260 261
271 270 273 280 285 288 293 298 298 300 301 303 305 303 305 309 312 317 319 322 322 322 320 317 318 313 307 301 298 293 284 276 269 269 269 265 260 259 262 264 262 263 265
270 271 271 276 280 283 289 290 288 292 292 297 300 300 299 303 308 311 313 314 316 315 313 310 307 308 306 300 295 293 289 284 274 270 268 267 262 261 261 260 262 265 266
267 270 272 276 279 281 286 286 284 288 290 293 297 294 296 301 307 310 309 310 311 309 307 306 303 302 304 302 297 292 287 282 276 275 273 269 264 262 261 262 264 267 269
263 264 269 276 279 281 280 281 283 286 290 291 295 299 295 296 300 305 307 309 309 305 303 303 302 302 302 302 297 292 288 285 278 276 276 275 271 266 265 266 268 270 272
Height
5895 5893 5892 5891 5889 5888 5887 5886 5884 5883 5882 5881 5881 5881 5880 5879 5879 5879 5878 5878 5878 5877 5876 5876 5876 5877 5877 5878 5879 5880 5881 5882 5883 5884 5885 5885 5886 5886 5887 5887 5888 5888 5889
5895 5893 5892 5891 5890 5888 5887 5886 5884 5882 5881 5880 5880 5880 5880 5879 5879 5878 5878 5877 5877 5877 5876 5876 5876 5877 5877 5878 5879 5880 5881 5881 5882 5883 5884 5885 5885 5886 5887 5887 5887 5888 5889
5895 5894 5893 5891 5890 5889 5887 5886 5885 5882 5881 5880 5880 5880 5879 5879 5878 5878 5878 5877 5877 5877 5876 5876 5876 5877 5877 5878 5879 5879 5880 5881 5882 5883 5884 5884 5885 5885 5886 5886 5887 5887 5888
5896 5894 5893 5892 5890 5889 5888 5886 5885 5884 5882 5881 5880 5879 5879 5878 5878 5877 5877 5877 5877 5876 5876 5876 5876 5877 5877 5878 5879 5879 5880 5881 5882 5882 5883 5883 5884 5884 5885 5886 5886 5887 5887
5896 5895 5893 5892 5891 5889 5888 5887 5885 5884 5883 5881 5880 5879 5879 5878 5877 5877 5877 5876 5876 5876 5876 5876 5876 5877 5877 5878 5878 5879 5880 5880 5881 5881 5882 5882 5883 5884 5884 5885 5885 5886 5886
5896 5895 5894 5892 5891 5890 5888 5887 5885 5884 5883 5882 5880 5879 5879 5878 5877 5877 5876 5876 5876 5876 5876 5876 5876 5876 5876 5877 5878 5878 5879 5879 5880 5881 5881 5881 5882 5883 5884 5884 5885 5885 5886
5897 5896 5894 5893 5892 5890 5889 5887 5885 5884 5883 5882 5881 5879 5878 5878 5877 5876 5876 5876 5876 5875 5875 5875 5875 5876 5875 5876 5876 5877 5877 5878 5879 5879 5880 5880 5881 5882 5883 5883 5884 5884 5885
5897 5896 5894 5893 5892 5890 5889 5887 5886 5884 5883 5882 5881 5879 5878 5877 5877 5876 5876 5875 5875 5875 5874 5874 5874 5874 5874 5875 5875 5875 5875 5875 5877 5878 5879 5879 5880 5881 5882 5882 5882 5883 5883
5897 5896 5894 5893 5892 5890 5889 5888 5886 5885 5883 5882 5881 5879 5878 5877 5876 5876 5875 5875 5874 5874 5873 5873 5873 5873 5873 5873 5873 5873 5871 5872 5875 5877 5878 5878 5879 5880 5880 5881 5881 5882 5882
5897 5896 5895 5893 5892 5890 5889 5888 5886 5885 5883 5882 5881 5879 5878 5877 5876 5875 5875 5874 5873 5873 5872 5872 5872 5872 5872 5872 5871 5871 5870 5871 5873 5875 5876 5877 5878 5879 5879 5879 5880 5880 5881
5898 5896 5895 5893 5892 5890 5889 5888 5886 5885 5883 5882 5881 5879 5878 5877 5876 5875 5874 5873 5872 5872 5871 5871 5870 5870 5870 5870 5870 5870 5870 5871 5872 5874 5875 5876 5877 5877 5878 5878 5878 5879 5879
5898 5896 5895 5893 5892 5891 5889 5887 5886 5885 5883 5882 5880 5879 5878 5877 5875 5874 5873 5872 5871 5870 5870 5869 5868 5868 5868 5868 5869 5869 5869 5870 5871 5873 5874 5875 5875 5876 5876 5876 5877 5877 5877
5897 5896 5895 5893 5892 5890 5889 5887 5886 5884 5883 5881 5880 5879 5877 5876 5875 5874 5872 5871 5870 5869 5868 5867 5866 5866 5866 5866 5867 5868 5869 5869 5870 5871 5872 5873 5874 5874 5874 5875 5875 5875 5875
5896 5895 5894 5893 5892 5890 5889 5887 5886 5884 5883 5881 5880 5878 5877 5876 5874 5873 5872 5870 5869 5868 5866 5865 5864 5862 5863 5864 5865 5867 5868 5869 5869 5870 5871 5871 5872 5872 5873 5873 5873 5873 5873
5896 5895 5893 5892 5891 5890 5888 5887 5885 5884 5882 5881 5879 5878 5876 5875 5874 5872 5871 5870 5868 5867 5865 5863 5861 5860 5860 5862 5863 5865 5866 5867 5868 5869 5869 5870 5870 5870 5871 5871 5871 5871 5871
5895 5894 5892 5891 5890 5889 5888 5886 5885 5883 5882 5880 5879 5877 5876 5874 5873 5872 5870 5869 5867 5866 5864 5862 5861 5859 5860 5861 5862 5864 5865 5865 5866 5866 5867 5868 5868 5868 5868 5868 5869 5869 5869
5893 5892 5891 5890 5889 5888 5887 5886 5884 5882 5881 5880 5878 5877 5875 5874 5872 5871 5870 5868 5867 5865 5864 5862 5860 5860 5860 5861 5861 5862 5863 5863 5864 5864 5865 5865 5866 5866 5866 5866 5867 5867 5867
5892 5891 5890 5889 5888 5887 5886 5884 5883 5882 5880 5879 5877 5876 5874 5873 5872 5871 5869 5868 5866 5864 5863 5861 5861 5860 5860 5860 5860 5861 5861 5861 5862 5862 5863 5863 5863 5863 5864 5864 5864 5864 5864
5890 5889 5888 5888 5887 5886 5884 5883 5882 5881 5879 5878 5876 5875 5874 5872 5871 5870 5869 5867 5865 5864 5862 5861 5860 5859 5859 5859 5859 5859 5859 5859 5859 5860 5860 5860 5861 5861 5861 5861 5861 5862 5862
5887 5887 5886 5886 5885 5884 5883 5882 5881 5880 5878 5877 5875 5874 5873 5872 5870 5869 5868 5866 5865 5863 5862 5860 5859 5858 5858 5857 5857 5857 5857 5857 5857 5857 5857 5858 5858 5858 5858 5858 5859 5859 5859
5885 5885 5884 5884 5883 5882 5881 5880 5879 5878 5877 5875 5874 5873 5872 5871 5870 5868 5867 5866 5864 5862 5861 5859 5858 5857 5857 5856 5856 5855 5855 5855 5855 5855 5855 5855 5855 5855 5855 5855 5856 5856 5856
5883 5882 5882 5882 5881 5880 5879 5878 5877 5876 5875 5874 5873 5872 5871 5870 5868 5867 5866 5865 5863 5861 5860 5859 5857 5856 5855 5855 5854 5854 5853 5853 5853 5852 5852 5852 5852 5852 5852 5853 5853 5853 5852
5880 5880 5880 5880 5879 5878 5877 5876 5876 5875 5874 5872 5871 5871 5870 5868 5867 5866 5865 5863 5862 5860 5858 5857 5856 5855 5854 5853 5852 5852 5851 5851 5850 5850 5849 5849 5849 5850 5850 5850 5850 5850 5849
5877 5877 5877 5877 5877 5876 5875 5875 5874 5873 5872 5871 5870 5869 5868 5867 5866 5864 5863 5862 5860 5858 5857 5856 5854 5853 5852 5851 5850 5849 5849 5848 5848 5847 5847 5847 5847 5847 5847 5847 5846 5846 5846
5875 5875 5875 5875 5874 5874 5873 5873 5872 5871 5870 5869 5868 5867 5866 5865 5864 5863 5861 5859 5858 5856 5855 5854 5852 5851 5850 5849 5848 5847 5846 5845 5844 5844 5844 5844 5843 5843 5843 5843 5843 5842 5842
5872 5872 5872 5872 5872 5871 5871 5871 5870 5869 5868 5867 5866 5865 5864 5863 5862 5861 5859 5857 5855 5854 5852 5851 5850 5849 5848 5847 5846 5845 5843 5842 5842 5841 5841 5840 5840 5840 5840 5840 5839 5839 5838